CAPE
1661 1761 1884 2111 2032 1890 1804 1433 1530 1476 1484 1397 1130 1215 1261 1348 1318 1333 1315 1322 1350 1464 1473 1430 1422 1408 1381 1398 1344 1304 1363 1481 1326 1052 953 899 802 872 826 818 912 912 964 877 892 822 673 663 563 754 853 845 757 550 417 346 305 334 238 209 173 167 82 11 14 8 40 337 594 620 606 531 620 585 637 658 852 940 921 1084 811 756 860 1017 822
1788 1846 1950 2061 2019 1923 1711 1653 1546 1504 1388 1206 1051 1279 1231 1142 1274 1242 1187 1300 1343 1261 1307 1411 1389 1424 1452 1397 1398 1402 1387 1139 1015 1004 977 952 1017 1051 1096 1148 1174 1044 916 877 981 1205 1176 1281 1087 882 862 788 817 750 472 311 356 527 443 402 369 344 217 188 96 15 182 283 475 670 604 594 590 632 736 805 809 894 940 908 891 722 743 927 951
1766 1904 1973 1934 1916 1687 1699 1456 1480 1398 1395 1437 1433 1210 1150 1321 1288 1116 1066 1122 1171 1152 1205 1224 1245 1432 1452 1449 1435 1333 1146 1093 1099 1059 1046 1160 1299 1154 1079 798 729 1010 1322 1314 1119 1263 1065 880 964 1131 1024 934 918 717 581 496 543 556 522 538 421 326 224 236 207 162 193 222 279 293 663 736 649 682 623 724 685 803 889 894 918 816 832 965 858
1799 1938 1920 1988 1883 1782 1607 1428 1434 1496 1473 1441 1303 1247 1372 1252 1020 944 958 1096 1041 1052 1148 1450 1685 1638 1700 1631 1475 1321 1247 1192 1182 1323 1429 1310 1352 1003 820 931 1670 1865 1660 1254 1061 920 851 922 1066 1225 1246 1113 902 804 812 650 630 542 597 561 440 366 313 192 161 278 318 279 266 246 175 42 456 631 666 733 742 700 794 790 771 829 919 763 737
1873 1975 1883 1827 1758 1732 1655 1523 1668 1520 1509 1364 1343 1449 1177 1052 944 938 1112 1219 1205 1176 1383 1625 1569 1631 1647 1716 1626 1622 1566 1459 1412 1536 1340 1335 1246 1286 1251 1493 1640 1483 1458 1112 868 944 1092 1067 1102 1232 1002 1004 1177 1160 863 681 616 711 975 787 517 449 310 260 213 305 412 411 342 65 0 0 132 499 590 640 568 608 812 791 780 745 721 796 848
1938 1977 1865 1655 1587 1733 1704 1625 1488 1487 1582 1454 1306 1260 1168 1090 1038 1000 1132 1256 1216 1168 1373 1236 1326 1564 1630 1570 1598 1692 1790 1765 1714 1768 1607 1511 1681 1304 1106 1246 1230 1176 1237 1152 1121 1161 1141 1310 1309 1270 1277 1418 1283 1216 1189 1176 931 739 825 798 1042 859 428 356 304 370 359 265 155 0 0 0 10 198 382 361 457 813 727 591 665 713 733 642 654
1898 1869 1664 1526 1583 1684 1751 1579 1434 1435 1501 1476 1483 1401 1280 1176 1216 1103 1128 1306 1457 1288 1231 1196 1430 1583 1538 1519 1615 1556 1635 1691 1662 1846 1805 1694 1617 1518 1130 953 1105 1182 1184 1120 1062 1080 1218 1334 1312 1476 1379 1357 1278 1251 1160 1214 1113 1097 1034 1087 1195 1253 562 334 329 398 332 60 0 0 0 0 4 50 226 390 239 173 474 513 563 632 616 615 493
1850 1759 1545 1534 1598 1618 1704 1500 1456 1434 1481 1511 1513 1200 1234 1380 1482 1467 1439 1359 1338 1374 1516 1573 1602 1662 1618 1599 1671 1418 1577 1499 1521 1645 1714 1733 1560 1593 1383 1240 1168 1145 1090 1092 1158 1213 1356 1393 1440 1380 1397 1375 1255 1167 1101 1109 1093 1120 1141 1182 1309 1072 568 388 370 450 379 30 1 0 1 33 16 56 116 71 48 59 298 324 272 269 345 376 409
1873 1745 1674 1536 1520 1722 1691 1653 1487 1383 1443 1599 1373 1301 1340 1645 1617 1422 1246 1417 1531 1555 1492 1596 1571 1650 1775 1751 1700 1774 1744 1425 1581 1633 1674 1647 1481 1397 1290 1138 1093 1046 1051 1053 1118 1178 1338 1456 1433 1338 1364 1234 1204 1277 1189 1158 1206 1282 1291 1372 1531 1443 740 596 552 420 159 43 0 0 0 0 0 15 46 92 131 138 52 12 98 110 94 139 211
1796 1737 1602 1492 1580 1858 1804 1654 1583 1426 1660 1524 1634 1373 1478 1464 1612 1511 1400 1567 1480 1489 1449 1457 1494 1686 1670 1735 1700 1746 1688 1589 1788 1949 1966 1912 1552 1372 1252 1201 1015 853 975 994 1128 1310 1408 1406 1319 1259 1424 1244 1415 1352 1239 1263 1312 1407 1457 1479 1565 1510 783 605 553 446 114 73 24 26 252 237 2 0 7 11 23 20 0 27 270 226 16 108 135
1780 1699 1571 1566 1737 1886 1739 1723 1671 1531 1648 1686 1810 1702 1674 1772 1726 1702 1742 1600 1368 1513 1578 1505 1541 1631 1737 1820 1813 1817 1807 1771 1820 1716 1892 1937 1554 1374 1326 1235 990 1026 1046 1124 1111 1304 1244 1241 1362 1356 1379 1528 1487 1336 1380 1375 1398 1474 1490 1554 1694 1215 723 629 395 220 162 52 20 128 348 336 30 58 69 43 48 20 53 99 45 31 23 11 41
1704 1635 1620 1653 1881 1810 1777 1790 1692 1784 1784 1881 1929 2010 1986 1733 1779 1826 1816 1591 1543 1758 1675 1641 1700 1684 1604 1602 1650 1612 1523 1590 1520 1499 1634 1700 1569 1428 1296 1182 1127 1146 1225 1237 1213 1169 1265 1424 1370 1587 1625 1501 1446 1404 1300 1366 1590 1530 1471 1471 1197 849 723 536 205 168 106 98 180 26 0 6 89 421 497 197 94 71 278 303 335 285 213 201 182
1710 1696 1704 1776 1798 1867 1858 1809 1819 1896 1975 1987 2102 2004 1934 1836 1852 1872 1872 1872 1852 1751 1776 1745 1710 1741 1684 1676 1609 1536 1545 1627 1577 1528 1599 1587 1560 1433 1286 1239 1254 1263 1377 1378 1452 1549 1599 1554 1649 1747 1693 1461 1396 1320 1391 1535 1664 1296 1139 1023 923 877 750 528 243 142 108 49 30 10 12 112 313 254 179 176 256 230 145 83 58 34 31 36 34
1682 1774 1775 1745 1736 2044 1978 1884 1983 2078 2097 2162 2232 2132 2027 1879 1833 1977 1932 1888 1882 1901 1837 1794 1796 1734 1815 1751 1691 1688 1700 1737 1695 1589 1568 1498 1340 1215 1250 1307 1434 1457 1458 1545 1700 1729 1765 1739 1615 1638 1702 1618 1442 1362 1531 1649 1634 1128 1040 1013 944 849 715 535 328 182 148 101 248 60 41 94 218 236 119 87 82 108 130 124 106 59 16 4 255
1737 1847 1844 1716 1763 1798 2185 2052 2063 2186 2228 2208 2144 2080 1930 1966 1932 1871 1932 1892 1893 1820 1833 1852 1926 1840 1790 1808 1817 1707 1658 1634 1633 1644 1622 1510 1320 1355 1440 1588 1614 1566 1581 1640 1643 1683 1732 1624 1633 1638 1689 1715 1538 1515 1623 1734 1701 1291 1058 1008 932 763 542 469 362 155 194 417 365 60 58 152 601 288 172 169 153 82 84 8 6 92 131 115 47
1811 1919 1795 1649 1717 1925 1824 1881 2197 2264 2268 2170 2074 1966 1922 1871 1708 1774 1896 1965 1867 1855 1894 1871 1844 1853 1846 1804 1756 1712 1575 1592 1644 1710 1753 1616 1565 1516 1568 1704 1662 1653 1599 1565 1565 1603 1683 1693 1670 1686 1619 1609 1542 1516 1561 1713 1655 1274 1094 995 786 648 501 489 288 282 321 244 294 254 166 380 410 276 204 271 243 156 121 63 49 37 54 47 64
1903 1896 1682 1659 1744 1706 1690 1896 2114 2435 2324 2218 2070 1922 1694 1840 1878 1990 2018 2007 2002 1996 1959 1871 1917 1892 1881 1806 1731 1749 1712 1653 1753 1803 1842 1760 1713 1633 1630 1768 1869 1793 1750 1625 1546 1586 1655 1661 1610 1541 1517 1495 1528 1507 1634 1709 1812 1487 1048 861 767 718 661 473 302 343 312 501 392 136 103 201 346 354 203 227 159 151 133 107 87 85 61 42 27
1949 1846 1777 1710 1625 1694 1741 1601 1742 1874 1965 2093 1903 1794 1925 1976 1981 1956 1960 1971 1980 1955 1907 1904 1888 1874 1743 1780 1639 1527 1485 1806 1687 1558 1810 1733 1688 1662 1607 1715 1744 1753 1692 1636 1555 1583 1613 1579 1502 1422 1340 1503 1530 1567 1599 1652 1737 1754 1163 1020 919 890 851 597 394 376 549 622 252 426 301 484 416 223 213 283 220 158 140 184 126 75 68 56 45
1937 1900 1847 1689 1673 1758 1578 1532 1615 1757 1729 1686 1564 1667 1850 1857 1938 1930 1962 1958 1937 1889 1937 1878 1766 1712 1823 1994 1718 1622 1595 1646 1593 1652 1693 1716 1663 1574 1441 1588 1711 1720 1629 1516 1526 1481 1402 1319 1323 1217 1214 1458 1507 1500 1498 1570 1651 1734 1222 1058 1035 1003 936 519 408 500 576 370 312 304 412 451 463 291 254 194 188 197 181 228 182 118 69 34 5
1946 1944 1852 1791 1747 1737 1702 1650 1699 1716 1650 1666 1567 1742 1902 1914 1900 1974 1969 1921 1817 1742 1665 1665 1807 1756 1646 1548 1522 1418 1450 1394 1637 1596 1667 1614 1527 1428 1362 1315 1413 1507 1321 1300 1457 1281 1175 1162 1151 1232 1318 1444 1499 1315 1207 1436 1567 1821 1457 1173 1179 1125 510 445 484 461 403 432 373 416 714 403 287 330 389 314 243 257 191 131 116 128 105 71 82
1879 1856 1829 1837 1877 1930 1778 1768 1792 1684 1674 1641 1596 1672 1889 2042 1709 1857 1845 1713 1640 1538 1667 1548 1464 1447 1312 1445 1430 1413 1380 1400 1447 1438 1666 1603 1484 1292 1194 1180 1105 1056 1135 1125 1019 971 1096 1059 1055 1042 1050 1084 750 914 1007 1316 1544 1772 1628 1259 1286 579 496 472 491 444 392 595 532 510 559 550 523 288 269 193 192 149 155 166 219 191 112 99 55
1705 1777 1831 1876 1957 1959 1858 1872 1807 1665 1664 1465 1469 1492 1524 1504 1460 1511 1560 1325 1261 1226 1328 1399 1463 1404 1346 1236 1304 1282 1280 1294 1328 1576 1368 1488 1230 1180 1172 1137 1054 1036 1060 923 919 898 808 893 856 807 766 618 600 640 609 1149 1509 1730 1772 1394 659 593 492 485 456 392 454 379 492 795 657 639 390 212 196 169 159 181 238 266 213 199 164 102 74
1729 1713 1833 1924 1987 1909 1851 1786 1825 1665 1486 1356 1284 1262 1364 1528 1546 1463 1283 1199 1320 1458 1304 1313 1296 1204 1138 1160 1110 1126 1205 1224 1270 1353 1318 1246 1323 1216 1130 1119 1024 904 918 838 696 680 726 762 977 778 600 555 549 608 593 671 1255 1733 1577 829 694 598 476 455 435 392 350 425 556 896 683 648 617 595 526 462 334 325 387 327 205 172 148 121 118
1697 1749 1863 1993 1954 1908 1893 1767 1758 1586 1460 1364 1255 1264 1386 1427 1462 1373 1266 1177 1267 1240 1168 1194 1143 1104 1082 1033 1052 1116 1111 1287 1480 1533 1714 1128 1107 1108 1113 1058 969 944 971 1103 969 869 826 666 630 462 217 138 463 570 580 628 887 959 958 865 768 602 450 452 466 343 327 784 694 726 670 633 608 546 556 556 328 262 292 348 219 148 143 146 98
1685 1706 1816 1783 1880 1897 1851 1785 1721 1598 1504 1340 1251 1188 1241 1350 1387 1336 1331 1287 1208 1240 1180 1130 1131 1081 1029 997 1016 1058 1101 1301 1190 1150 1136 1055 978 892 809 826 856 797 814 795 596 378 326 202 80 49 129 175 2 325 493 575 825 899 843 855 769 586 424 465 463 358 467 650 818 848 725 819 595 631 686 596 487 286 234 179 214 227 190 139 129
1608 1733 1824 1951 1871 1813 1814 1742 1652 1569 1505 1364 1227 1066 1158 1312 1417 1378 1293 1166 1160 1284 1178 1146 1170 1040 966 986 1030 1049 1121 1170 1078 1082 1068 993 884 800 756 664 554 568 620 629 479 366 302 280 238 81 69 212 237 65 374 498 764 875 833 826 735 578 440 454 442 390 583 687 1158 1046 1246 1055 738 587 601 744 510 391 284 251 279 284 169 122 51
1546 1616 1708 1866 1853 1834 1788 1706 1627 1542 1494 1371 1126 1066 1070 1245 1356 1287 1118 1186 1115 1088 837 979 1099 978 930 972 1013 1076 1129 1127 1066 1053 1013 918 894 848 781 708 674 694 642 495 339 281 254 266 187 20 211 246 234 91 162 375 698 847 816 809 708 532 452 455 449 487 627 791 1289 1106 1050 1048 921 566 582 617 528 317 224 183 121 130 174 157 113
1440 1535 1703 1747 1781 1801 1768 1714 1576 1508 1417 1280 1182 1010 973 1107 1197 1233 1057 999 957 644 658 965 1094 873 846 895 924 1016 1062 1043 980 960 982 934 934 942 888 819 731 631 583 466 196 230 248 152 1 3 228 258 211 0 114 340 627 802 834 815 718 600 505 500 463 528 706 795 896 1205 1082 1286 926 670 542 514 254 238 262 239 223 252 286 192 182
1304 1438 1678 1760 1736 1662 1648 1641 1466 1419 1287 1160 1312 1014 890 1041 1094 1006 906 906 656 563 724 871 826 732 736 776 812 938 1007 1002 876 783 915 921 960 962 899 840 761 519 475 328 8 7 2 0 1 177 234 250 178 3 5 288 624 746 710 760 745 640 548 516 511 626 724 665 740 1284 1441 1297 974 799 700 535 374 378 428 453 335 274 212 173 130
1254 1374 1625 1694 1817 1601 1534 1319 1328 1247 1158 1263 1318 955 869 1035 1032 981 982 863 526 653 696 597 625 659 646 655 713 828 964 978 956 858 760 775 809 829 756 694 667 504 409 354 270 0 58 0 0 0 203 242 175 129 66 219 518 733 692 707 707 615 548 511 643 734 781 743 735 1389 1362 1181 961 892 777 576 450 490 525 467 403 378 381 322 263
1235 1278 1523 1572 1735 1752 1541 1316 1141 1099 1133 1365 1190 891 947 1007 1024 997 977 709 579 596 504 474 468 498 561 610 674 741 824 903 973 790 752 728 706 771 694 587 476 439 344 300 428 442 263 1 2 0 0 213 0 10 17 45 323 622 580 648 690 620 563 654 740 814 890 770 712 982 1601 1353 1137 1066 805 675 695 433 435 561 533 463 419 410 440
1140 1230 1400 1460 1510 1556 1484 1257 1202 1089 1200 1412 1192 940 1071 1086 1012 938 739 646 671 586 467 431 439 448 466 566 605 644 739 876 875 725 777 758 801 756 658 578 512 351 84 356 484 328 61 98 123 43 0 0 0 0 15 59 185 458 602 723 683 682 697 751 816 912 900 672 653 633 907 1256 1312 1324 986 830 602 390 690 744 655 634 565 589 468
1045 1116 1297 1377 1392 1396 1344 1230 1208 1084 1353 1433 1070 1071 1108 1000 967 847 719 871 850 710 527 474 510 616 645 638 558 566 674 813 853 790 780 782 791 677 600 535 416 411 543 574 515 439 432 400 34 0 0 0 0 8 238 288 407 509 639 708 726 713 762 805 858 894 785 559 582 547 708 900 1145 941 901 735 405 838 861 826 749 700 815 716 528
996 1010 1132 1269 1343 1357 1296 1242 1162 1047 1344 1123 1074 1034 940 910 877 844 836 1014 924 799 680 476 547 762 760 780 665 549 580 655 785 738 654 586 520 491 446 437 501 638 742 610 499 458 278 25 1 1 78 0 0 4 166 392 484 607 690 711 728 749 800 856 675 706 615 560 505 411 549 599 585 787 1037 631 966 733 916 982 772 974 710 490 392
1165 1022 1042 1093 1203 1263 1232 1189 1090 1131 1074 898 985 900 977 995 978 965 968 989 912 857 679 555 546 780 790 724 675 592 642 643 618 566 551 548 527 471 490 485 724 852 848 561 496 466 345 10 0 0 0 0 4 47 54 127 374 440 560 675 744 863 823 662 690 600 506 575 488 354 456 490 524 648 796 1051 1465 1381 1365 801 384 321 250 190 241
1279 1142 1038 987 1046 1032 1000 1010 1006 1136 947 995 909 906 1031 977 950 1000 926 889 904 860 704 565 544 707 717 759 755 684 652 635 612 624 692 658 584 499 653 568 759 929 846 621 476 421 1 0 0 0 0 2 15 25 69 138 344 458 580 671 765 827 778 695 697 529 510 562 520 364 278 369 393 648 625 580 1164 1444 1302 1140 1076 1042 991 1046 889
1453 1282 1152 1053 1156 1113 1027 977 988 997 921 946 927 960 1004 990 1027 1010 959 983 973 936 883 754 694 804 912 898 797 691 699 678 708 760 800 768 690 642 723 733 768 977 819 671 530 150 28 6 0 0 0 0 5 36 116 225 359 472 551 584 676 726 710 736 733 476 510 505 462 486 398 714 1150 776 388 623 800 1005 991 833 736 669 613 634 675
1598 1505 1330 1204 1253 1270 1180 1089 1029 854 822 841 932 994 984 1002 1030 1021 1110 1179 1149 1040 943 830 774 931 1062 922 672 659 731 743 754 800 816 804 826 830 785 858 868 1028 887 802 570 188 58 29 0 0 0 0 3 52 202 324 383 493 589 571 584 618 719 528 591 544 530 475 419 516 422 325 314 351 426 452 540 588 610 590 525 489 398 381 547
1738 1662 1576 1396 1411 1427 1287 1213 1201 985 891 844 964 996 1009 1019 1029 985 1071 1169 1156 1050 1015 983 900 1052 1116 1004 801 661 646 651 764 902 883 839 801 756 866 784 808 862 782 769 682 496 53 22 8 0 0 0 11 95 206 325 423 496 596 726 614 485 461 517 590 495 458 442 486 586 434 326 405 413 414 444 455 442 404 353 292 114 220 211 240
1790 1822 1784 1544 1513 1438 1316 1141 1160 1021 970 920 983 1000 1012 1027 1072 1058 1059 1133 1092 996 1038 1109 1122 1111 1096 1046 916 751 643 558 783 863 848 742 637 730 811 797 714 838 819 653 728 686 251 52 0 0 3 21 39 129 157 205 303 382 450 570 612 552 536 490 623 638 605 457 418 387 386 361 448 504 507 493 458 420 373 289 226 186 178 242 244
1639 1951 1871 1657 1659 1433 1399 1231 1185 1142 999 962 979 1018 1026 1050 1088 1096 1064 1157 1102 986 1056 1094 1123 1088 1130 1063 914 881 809 679 756 852 748 624 676 766 768 633 787 610 642 528 632 568 309 72 0 0 7 32 48 59 66 53 201 255 442 563 573 539 544 515 469 612 618 501 427 476 463 430 410 439 461 461 444 400 335 253 185 219 250 274 0
1992 1945 1913 1837 1728 1485 1430 1339 1254 1178 1139 1050 1003 1025 1059 1100 1128 1127 1074 1096 1123 992 1002 1012 1050 1105 1090 1046 937 958 867 760 807 756 701 659 578 716 750 576 661 750 674 608 548 568 436 325 0 0 12 53 46 74 26 0 23 235 255 344 448 415 416 539 546 596 493 454 404 464 538 457 439 412 372 328 316 306 280 248 264 245 152 0 0
2071 2000 1921 1896 1609 1475 1392 1328 1262 1206 1211 1138 1082 1037 1048 1104 1098 1123 1095 1128 1143 1013 988 1106 1199 1096 1048 886 915 919 799 800 819 774 748 706 608 622 723 706 658 676 684 648 651 578 600 435 0 6 0 0 101 104 0 0 8 96 166 249 280 266 304 431 418 425 481 384 346 430 506 481 423 341 322 243 228 221 208 218 192 133 0 0 0
2100 2107 2028 1826 1464 1438 1405 1274 1196 1238 1233 1192 1246 1205 1115 1093 1085 1125 1197 1186 1032 1023 1070 1179 1067 1142 973 822 730 699 762 779 808 773 733 764 714 739 711 666 596 598 494 462 514 544 664 473 331 0 2 52 275 294 158 0 0 6 88 236 118 262 312 341 402 251 242 139 268 232 446 274 258 246 290 250 307 229 240 179 1 0 0 0 0
1970 2032 1861 1447 1299 1357 1353 1193 1221 1314 1292 1288 1348 1267 1151 1168 1186 1205 1151 995 969 1082 1251 1286 1233 1005 886 771 766 810 849 818 807 828 821 772 687 668 617 678 700 652 516 433 581 582 494 532 471 375 308 320 157 360 359 329 0 0 0 0 7 103 194 209 151 172 156 119 122 184 171 172 197 242 200 204 152 204 141 0 0 0 0 0 0
1595 1470 1346 1024 1153 1340 1331 1226 1271 1353 1331 1395 1388 1230 1162 1190 1146 1081 1011 1026 1085 1197 1232 1107 939 851 821 785 832 863 891 851 870 832 761 639 474 452 451 601 691 742 611 543 671 634 572 580 604 477 388 384 362 400 424 352 195 0 0 0 0 15 4 204 133 162 86 174 45 186 183 190 193 144 40 177 7 0 0 0 0 0 0 0 0
1600 1256 949 827 1062 1308 1324 1294 1368 1390 1436 1466 1334 1093 1128 1171 1173 1163 1084 1145 1136 1166 1148 1003 860 804 788 790 848 910 916 843 758 768 527 0 0 132 395 531 750 746 614 709 688 662 568 584 685 550 437 393 368 408 410 392 377 222 0 241 338 0 10 136 50 59 101 140 162 182 183 193 30 207 200 166 28 0 0 0 0 0 0 0 0
1233 1012 820 753 1000 1367 1285 1373 1442 1460 1517 1470 1208 1069 1106 1208 1255 1264 1210 1248 1105 1036 1017 960 814 772 799 808 875 821 717 619 650 532 360 0 0 144 456 547 652 678 517 610 775 745 693 706 677 665 472 415 352 315 355 371 380 351 351 62 65 0 0 0 1 69 72 126 112 80 134 163 195 181 72 0 0 0 0 0 0 0 0 0 0
1079 921 845 791 947 1163 1332 1411 1453 1467 1501 1455 1171 1061 1107 1278 1365 1386 1328 1317 1105 950 973 906 796 787 836 784 761 610 523 525 522 438 364 42 352 424 544 640 699 726 685 622 746 801 781 737 720 672 564 499 423 332 303 322 316 388 376 329 322 0 0 0 0 0 118 104 71 0 1 2 132 47 4 0 0 0 0 0 0 0 0 0 0
1064 1005 896 821 897 1038 1222 1445 1462 1460 1529 1489 1203 1093 1148 1313 1455 1478 1401 1258 1057 866 884 865 782 797 779 716 652 529 456 390 249 363 379 375 167 411 573 645 657 714 720 699 714 799 795 691 728 658 604 574 478 404 333 300 310 366 377 348 0 0 0 0 0 0 1 23 57 0 0 0 0 0 0 0 0 0 0 0 0 0 0 0 0
1076 971 896 832 816 1033 1203 1400 1246 1344 1604 1543 1322 1146 1173 1400 1542 1503 1353 1107 989 833 835 836 746 757 648 657 592 473 380 98 0 0 0 391 440 422 436 523 605 640 668 676 658 710 783 762 722 605 595 565 472 403 358 344 352 340 353 346 274 0 0 0 0 0 5 31 9 8 5 0 0 0 0 0 0 0 0 0 0 0 0 0 0
Wind_Speed
25 25 23 30 31 35 37 39 40 43 44 43 41 39 36 35 34 34 34 37 41 40 40 41 41 40 39 37 35 35 35 35 35 35 35 34 33 34 33 33 33 32 29 29 28 27 27 28 28 28 29 28 29 28 27 27 27 26 25 24 22 21 nan nan nan nan nan 19 22 21 19 19 19 19 19 19 19 21 20 19 16 11 8 10 16
29 24 24 28 34 35 38 38 41 43 44 44 42 38 36 36 35 36 37 37 38 41 41 40 39 38 37 36 35 35 35 35 35 34 34 33 32 34 33 33 32 31 30 29 29 28 28 28 28 28 29 29 28 27 27 28 27 26 25 23 21 20 19 18 nan nan 16 16 19 21 20 19 19 19 20 20 20 21 20 19 18 11 8 15 15
28 24 24 30 36 39 38 39 42 43 44 43 42 40 37 38 38 39 41 40 40 40 39 39 39 37 35 35 33 34 34 34 34 34 33 32 32 32 33 32 31 30 31 30 29 28 28 29 28 28 29 30 29 28 27 27 27 26 25 23 21 19 18 17 17 17 16 16 17 16 16 19 18 18 19 19 20 21 20 19 18 13 10 18 15
30 26 27 34 39 40 39 41 44 46 43 41 41 40 40 39 41 41 41 41 41 41 40 38 36 36 34 34 33 35 35 34 34 33 32 31 30 32 30 30 31 31 30 31 29 29 29 29 28 29 29 29 29 29 27 28 27 26 25 23 22 19 18 17 18 17 16 15 16 13 8 nan 12 19 19 20 20 20 20 20 19 19 19 17 17
30 29 31 33 36 40 43 44 45 48 45 43 42 43 44 43 43 43 43 40 39 40 40 38 38 36 34 34 34 35 35 34 34 33 32 30 29 30 30 31 31 29 28 30 29 29 28 28 28 28 28 28 28 28 27 27 26 26 25 23 23 20 17 16 16 16 15 15 15 nan nan nan 8 15 17 19 19 20 21 21 20 19 19 18 17
30 31 33 35 37 39 44 46 49 50 47 46 45 45 46 46 45 44 44 43 42 41 39 38 36 34 33 33 34 35 35 35 34 34 31 29 26 29 30 29 27 25 25 27 27 27 27 27 27 28 28 28 28 27 26 25 24 23 21 21 18 19 18 15 15 15 15 15 13 nan nan nan nan 9 15 16 18 19 20 20 19 18 18 18 17
32 31 34 37 38 40 44 47 50 49 49 48 45 46 46 45 43 44 44 44 43 41 38 37 34 32 32 33 33 33 33 35 34 34 32 29 26 26 29 28 26 23 24 25 26 26 26 26 26 27 27 28 27 27 26 25 23 20 18 18 18 17 19 16 16 15 14 nan nan nan nan nan nan nan 13 15 14 16 19 18 18 18 19 18 17
32 33 35 38 39 43 45 48 50 50 49 47 45 46 46 44 43 43 44 44 43 40 38 34 33 32 32 33 33 34 35 34 34 33 29 27 26 26 26 26 24 23 23 23 24 24 24 25 25 26 26 26 26 26 26 24 22 20 18 17 19 19 19 17 16 15 13 nan nan nan nan nan nan nan 11 nan nan nan 16 17 16 16 17 17 16
33 36 38 39 40 48 46 48 51 51 48 46 44 45 44 44 44 43 44 43 42 39 37 34 33 32 31 31 33 34 35 34 34 32 29 28 26 25 24 24 23 22 22 22 21 21 22 23 23 25 26 26 26 26 25 22 20 18 17 16 18 20 19 18 16 14 9 nan nan nan nan nan nan nan nan nan 13 16 nan nan nan 15 nan 17 17
36 37 39 40 41 46 47 49 51 50 46 43 42 43 43 42 44 44 45 44 41 38 35 33 32 32 32 32 33 34 35 35 33 30 27 26 25 25 26 24 21 21 22 22 21 20 21 22 22 23 25 25 25 24 23 20 19 19 17 17 18 21 21 19 17 12 8 nan nan nan 10 9 nan nan nan nan nan nan nan nan 11 11 nan 18 18
39 39 39 40 42 46 48 49 49 47 44 42 41 42 42 42 43 44 44 42 39 36 33 31 30 31 31 31 31 32 34 34 32 31 29 27 28 27 27 25 23 22 23 21 21 22 22 22 21 21 22 23 24 24 23 21 19 21 21 21 23 24 21 20 15 9 8 nan nan 9 9 10 nan nan nan nan nan nan nan nan nan nan nan nan nan
40 39 39 39 44 47 48 46 44 42 41 40 41 41 41 42 43 43 43 40 37 34 31 29 29 30 31 32 32 32 33 33 32 31 30 29 28 27 27 26 24 25 23 21 21 23 23 22 21 20 21 22 23 24 24 23 21 23 25 26 26 24 22 19 12 10 9 nan 10 nan nan nan nan 11 16 17 nan nan 20 20 19 19 19 19 19
40 39 40 39 41 45 44 40 39 39 40 40 39 40 41 42 42 42 40 36 34 32 30 29 29 29 31 32 33 33 32 32 31 31 30 28 28 27 26 27 25 25 23 22 22 23 23 22 21 21 21 22 22 23 25 25 22 24 26 26 25 24 21 19 12 11 10 nan nan nan nan 9 8 13 13 16 18 17 18 nan nan nan nan nan nan
41 40 39 38 39 44 38 35 35 37 38 38 38 38 40 41 41 41 38 35 32 30 29 28 29 30 30 31 31 31 30 30 30 30 29 27 26 26 25 26 25 23 22 23 23 24 25 24 24 23 21 22 22 23 25 25 23 24 26 26 25 23 22 16 13 11 11 11 10 nan nan nan 8 15 14 nan nan 16 17 19 19 nan nan nan 22
42 40 38 38 38 35 36 32 33 35 36 36 37 38 41 41 40 39 36 34 31 30 29 30 29 29 30 30 29 29 30 31 31 30 29 26 24 24 23 23 21 20 22 23 25 27 27 26 26 26 24 22 21 21 24 24 22 24 26 25 24 22 20 13 11 11 11 10 10 nan nan 7 12 13 15 16 16 nan nan nan nan nan 21 19 nan
39 40 40 38 34 30 27 32 34 34 36 36 37 40 41 40 39 37 34 32 31 29 29 29 29 30 29 29 28 28 29 30 30 29 27 26 24 22 22 22 21 21 23 25 25 26 27 25 26 28 28 25 21 21 23 24 22 23 25 24 23 22 20 14 12 12 11 10 9 9 10 11 16 14 16 17 17 17 15 nan nan nan nan nan nan
37 39 39 35 30 26 26 27 31 37 35 36 38 40 41 40 37 35 32 32 30 30 29 29 29 30 29 28 27 26 27 29 29 28 26 25 21 20 23 23 23 24 25 25 24 26 27 25 25 29 30 25 21 21 22 23 21 22 24 24 24 23 21 16 13 13 12 10 9 9 10 10 14 16 17 16 17 16 16 17 nan nan nan nan nan
37 36 34 30 26 25 26 26 29 30 30 35 39 41 40 38 34 32 32 30 29 29 28 28 28 29 30 28 28 28 28 28 28 28 27 25 23 21 23 26 26 27 27 25 26 29 28 25 25 28 28 23 21 21 20 21 21 20 23 24 24 24 21 18 14 13 13 12 11 10 10 12 16 18 19 18 16 16 17 16 17 nan nan nan nan
30 29 26 24 24 25 26 26 28 28 30 31 33 36 39 36 33 33 31 29 28 28 28 28 29 29 29 28 28 28 27 27 28 28 29 28 26 23 24 28 28 28 28 27 28 28 27 26 24 24 24 21 21 20 18 18 19 21 23 24 26 24 22 16 15 14 14 12 11 11 11 13 14 18 18 18 18 18 17 17 17 18 nan nan nan
23 22 20 20 23 25 26 27 28 29 30 32 33 31 34 36 34 33 31 29 29 30 30 29 30 28 28 27 28 25 25 25 30 27 30 30 26 23 24 26 29 30 30 29 29 27 25 25 22 22 24 21 20 19 17 16 17 20 23 24 26 26 19 15 16 17 15 13 12 12 13 16 18 18 19 19 19 19 18 17 18 19 18 nan nan
19 18 18 20 23 24 27 26 28 32 33 33 31 29 30 34 32 33 31 31 30 31 29 29 27 25 24 24 24 21 22 23 24 23 27 24 24 26 27 28 29 30 31 29 27 26 25 24 21 21 23 21 20 19 17 15 16 19 24 24 25 21 19 17 17 17 16 14 14 12 18 19 19 18 20 20 20 19 19 19 20 20 19 nan nan
19 17 18 20 21 23 27 28 30 32 33 31 28 27 28 30 27 26 25 28 29 28 25 21 22 20 26 24 22 22 23 23 23 23 22 24 24 28 30 30 30 31 31 30 26 23 23 24 22 22 21 21 21 17 15 15 17 19 22 25 22 20 20 19 18 17 17 16 15 14 21 21 20 20 20 20 20 20 20 20 21 20 19 20 nan
20 19 20 22 22 25 27 28 30 32 32 30 27 27 27 27 26 26 26 27 27 26 22 23 22 23 23 24 23 22 22 22 23 23 24 28 26 29 31 32 31 31 31 29 24 21 21 23 24 23 21 21 20 18 17 16 17 21 24 23 21 21 21 21 20 19 18 16 16 18 21 21 21 22 22 21 21 21 21 22 21 21 21 21 21
23 24 24 25 25 25 27 28 30 31 30 28 28 28 28 27 26 26 25 25 25 25 24 24 24 23 24 23 22 22 22 23 27 30 27 24 25 27 29 30 31 32 31 24 22 20 21 22 25 25 20 19 21 20 19 18 20 21 22 22 22 22 22 22 20 20 19 17 16 22 22 22 22 23 22 23 22 22 22 23 23 23 23 23 nan
27 27 27 26 27 26 27 29 29 29 28 28 30 29 28 27 26 25 25 25 24 24 23 23 23 23 22 22 22 23 23 24 25 24 22 22 21 20 21 22 23 24 25 21 18 18 18 20 nan nan 18 21 nan 22 21 20 21 21 22 22 22 23 24 22 21 21 21 20 18 22 22 22 24 24 23 23 24 23 23 23 24 24 23 23 24
29 29 27 27 28 28 28 28 28 27 27 28 30 30 30 27 27 26 25 24 23 23 22 22 22 22 22 22 24 25 25 25 23 22 20 20 20 19 19 19 20 20 20 19 18 19 19 21 22 nan nan 21 22 nan 20 20 21 22 22 22 22 23 23 22 21 22 22 22 20 21 22 24 24 24 25 25 25 24 24 24 25 25 24 25 nan
25 26 27 25 26 29 28 27 26 25 27 27 28 28 27 27 26 26 25 23 22 22 22 21 21 21 22 23 25 25 24 23 22 20 20 20 19 18 17 16 17 18 17 17 17 18 18 18 17 nan 17 20 21 nan 21 21 20 23 23 22 22 22 22 22 22 22 23 23 22 25 24 23 23 26 25 25 25 25 25 25 25 24 24 24 25
21 21 22 23 24 28 27 25 24 23 25 26 26 26 27 28 28 28 25 24 21 21 20 20 21 21 22 23 23 23 23 22 21 20 18 17 16 15 15 16 15 14 13 14 16 16 17 17 nan nan 18 18 20 nan 20 20 19 21 23 23 22 22 22 22 23 23 23 24 24 24 23 23 26 25 26 27 26 26 26 25 25 25 25 25 26
21 21 22 24 25 27 22 21 21 22 24 26 26 25 26 27 26 25 23 22 18 17 18 19 20 20 21 21 22 22 21 20 19 16 14 13 13 14 16 15 13 11 11 11 nan nan nan nan nan 17 18 19 20 nan nan 19 18 18 21 23 23 23 22 22 23 23 24 25 24 23 25 24 26 27 26 26 27 27 26 25 25 26 26 26 26
24 25 26 27 25 21 19 19 20 22 23 24 24 25 26 26 26 24 20 19 16 17 18 19 19 20 20 20 20 20 19 17 15 13 13 13 14 16 16 14 12 9 9 10 12 nan nan nan nan nan 19 19 20 19 nan 18 17 18 19 21 22 23 22 22 23 23 24 24 23 23 26 25 27 27 25 25 26 26 26 26 26 26 26 26 26
24 22 20 21 18 16 17 19 21 21 22 24 25 25 24 25 25 21 18 17 16 17 18 19 19 19 20 20 20 18 17 15 14 13 14 15 15 16 15 14 10 8 8 10 10 11 12 nan nan nan nan 18 nan nan nan nan 18 18 18 20 21 22 22 23 23 23 23 23 23 23 24 25 26 26 25 24 24 24 24 24 25 25 25 26 27
16 16 13 15 13 14 17 19 20 21 23 25 24 24 23 24 23 19 18 17 17 17 18 18 18 19 20 20 19 17 16 15 15 15 15 15 15 15 14 12 9 8 nan 10 10 10 nan nan 13 nan nan nan nan nan nan nan 19 19 20 20 19 20 21 22 23 22 22 22 22 22 22 23 26 26 25 22 21 21 24 23 22 23 24 25 26
11 11 12 14 14 15 18 19 19 20 22 24 21 20 19 21 20 18 17 17 17 17 18 17 18 19 20 20 19 17 15 14 15 15 14 14 14 14 13 12 10 9 9 10 10 9 10 11 nan nan nan nan nan nan 17 17 18 19 21 20 18 19 19 23 23 20 19 22 22 21 22 23 24 25 23 20 20 23 24 22 22 23 22 22 23
12 13 14 14 14 16 17 16 18 21 24 22 18 15 16 17 18 18 18 18 18 18 18 18 18 18 19 19 18 17 16 15 15 15 15 15 14 14 13 12 10 8 8 8 8 9 9 nan nan nan nan nan nan nan 16 17 17 18 19 19 18 18 20 20 17 16 20 23 21 21 21 22 22 22 20 18 20 23 23 23 24 24 21 20 21
13 12 13 14 16 18 16 14 20 23 24 22 19 15 16 18 19 19 18 19 19 19 18 17 16 16 17 17 16 16 15 16 15 15 14 14 13 13 12 10 8 7 6 7 7 8 8 nan nan nan nan nan nan nan nan 15 16 17 18 18 19 19 19 17 16 19 21 20 19 20 20 20 20 21 20 19 22 28 28 26 25 22 22 21 21
10 12 13 14 15 16 16 16 22 22 20 20 18 17 18 20 21 20 20 20 20 19 17 15 14 14 14 15 15 15 15 15 14 14 14 13 12 11 10 9 7 6 5 6 7 7 nan nan nan nan nan nan nan nan nan 15 14 14 15 17 17 17 17 16 18 18 18 19 18 19 18 17 18 19 20 21 22 26 29 28 27 27 26 25 24
14 13 14 15 15 16 17 19 21 21 19 18 18 17 18 20 21 21 20 20 19 18 16 15 14 14 14 16 15 15 14 14 14 14 13 12 12 11 10 8 6 5 5 6 8 7 nan nan nan nan nan nan nan nan 13 13 13 12 13 15 16 17 17 17 18 18 17 18 17 16 16 16 16 18 19 21 23 23 26 28 27 26 25 24 24
15 13 14 17 19 19 19 20 20 19 18 19 19 16 16 18 19 21 21 20 19 17 16 15 14 14 15 15 15 14 13 14 14 13 13 12 12 13 11 9 7 5 6 7 9 8 nan nan nan nan nan nan nan nan 11 11 10 11 13 14 17 19 19 16 16 16 16 17 13 12 14 14 15 17 18 21 21 22 22 25 29 28 27 26 27
14 16 16 18 21 22 21 22 22 21 19 18 16 14 15 16 18 20 21 20 20 18 16 16 15 15 14 14 14 13 13 13 12 12 13 13 13 13 10 7 8 6 7 7 8 9 nan nan nan nan nan nan nan nan 9 9 11 12 13 14 15 19 17 15 14 13 14 13 10 12 14 15 16 17 19 20 21 21 21 21 21 20 23 29 28
15 16 17 20 21 22 23 22 21 22 21 19 17 14 14 16 19 18 19 20 20 19 18 16 15 14 13 13 12 12 12 11 11 11 12 13 11 10 9 9 9 9 6 6 7 8 9 nan nan nan nan nan nan 9 9 11 12 14 14 14 15 16 16 14 14 14 14 14 13 13 15 17 17 17 18 19 19 20 20 19 20 20 21 23 27
15 16 17 18 19 21 24 23 22 24 23 21 16 16 15 17 19 18 17 17 17 19 18 15 14 14 13 12 12 12 11 10 10 11 11 12 11 10 11 9 8 7 6 5 8 10 11 nan nan nan nan nan nan nan nan nan 12 12 12 14 15 16 16 14 14 15 16 16 15 13 15 18 15 14 15 16 18 18 17 18 18 19 19 18 nan
14 15 15 17 19 22 24 26 26 26 24 21 17 15 13 14 17 18 17 16 17 17 16 14 14 15 13 12 12 12 10 9 9 10 11 11 10 9 11 8 8 8 7 9 11 11 13 13 nan nan nan nan nan nan nan nan nan 9 11 11 13 15 15 13 12 13 15 16 13 11 15 15 15 14 14 16 17 16 16 16 17 17 17 nan nan
14 13 13 16 19 21 25 28 28 29 26 23 20 18 14 16 17 16 17 17 17 17 16 16 16 15 14 13 13 12 11 10 10 11 12 11 10 10 10 10 9 9 8 8 10 10 12 13 nan nan nan nan 8 6 nan nan nan nan 9 10 8 9 10 10 9 10 13 15 12 11 11 14 14 14 13 16 16 15 14 15 15 15 nan nan nan
15 13 13 17 18 20 24 26 25 28 29 24 22 20 18 18 19 19 20 18 16 19 20 19 18 17 17 15 15 13 12 12 11 12 12 11 11 11 10 10 10 9 8 8 9 10 12 12 12 nan nan nan 8 4 4 nan nan nan nan 7 7 9 11 8 10 10 13 15 11 10 12 13 13 12 11 15 16 15 14 14 nan nan nan nan nan
18 14 15 19 20 21 23 23 21 22 27 26 22 20 21 22 21 22 23 24 23 22 21 20 18 17 17 16 14 14 13 13 12 13 13 12 12 12 11 10 10 10 9 8 8 9 10 10 12 12 10 11 9 7 4 5 nan nan nan nan nan 8 7 10 11 11 12 15 12 11 15 15 14 13 14 17 17 15 14 nan nan nan nan nan nan
18 18 17 18 21 21 22 21 21 20 22 23 20 20 21 20 21 22 23 25 23 19 16 14 15 16 16 17 16 14 13 13 12 13 12 12 12 12 12 11 11 10 9 7 7 8 9 10 9 10 9 6 10 9 6 5 6 nan nan nan nan nan nan 11 10 11 nan 16 nan 14 16 17 15 14 nan 18 nan nan nan nan nan nan nan nan nan
14 17 16 17 19 18 20 20 21 21 21 18 19 21 22 21 21 22 23 23 19 16 18 18 19 19 20 18 17 16 14 13 13 13 13 nan nan 13 12 11 11 10 9 9 7 6 7 7 8 8 7 9 10 7 6 6 8 6 nan 5 5 nan nan 14 nan nan 15 14 17 18 18 18 nan 18 18 18 nan nan nan nan nan nan nan nan nan
18 18 16 16 18 17 18 18 17 19 17 15 17 19 21 21 23 25 26 23 19 17 19 21 23 22 22 21 20 19 17 15 14 14 13 nan nan 13 12 11 11 10 9 7 6 6 7 6 6 6 7 6 7 6 5 5 7 5 6 nan nan nan nan nan nan nan nan 17 19 nan 21 21 20 19 nan nan nan nan nan nan nan nan nan nan nan
17 17 15 15 15 14 15 16 17 18 15 13 17 21 23 23 24 27 28 23 20 21 23 24 24 24 24 23 22 20 19 17 15 14 14 nan 13 12 11 11 11 9 9 7 7 7 7 7 6 7 7 5 4 6 7 4 4 6 7 8 10 nan nan nan nan nan 15 18 nan nan nan nan 22 nan nan nan nan nan nan nan nan nan nan nan nan
15 15 14 14 14 15 15 17 18 16 13 12 16 23 26 26 26 27 28 25 24 25 25 25 25 24 24 23 22 21 18 18 17 16 15 14 13 13 12 11 10 10 9 8 8 7 6 6 6 7 7 6 5 6 6 6 4 7 6 9 nan nan nan nan nan nan nan nan nan nan nan nan nan nan nan nan nan nan nan nan nan nan nan nan nan
11 11 11 12 14 15 17 19 18 14 13 13 15 21 24 25 25 26 28 27 25 26 28 28 27 26 24 22 22 22 21 nan nan nan nan 14 13 12 12 10 11 10 11 11 9 7 6 6 6 7 9 8 8 7 6 7 7 8 8 9 11 nan nan nan nan nan nan nan nan nan nan nan nan nan nan nan nan nan nan nan nan nan nan nan nan
Wind_Direction
286 294 303 304 307 310 309 310 309 307 305 304 303 299 296 295 293 293 296 299 301 301 300 302 304 306 307 308 309 310 310 310 312 315 314 312 310 308 307 306 304 302 299 298 296 296 298 299 298 296 296 294 291 289 290 290 289 289 288 288 286 285 nan nan nan nan nan 274 269 263 262 261 262 262 261 258 255 251 247 245 237 231 234 259 260
292 294 299 303 307 308 308 308 309 306 304 304 305 302 299 298 296 296 298 297 298 300 301 302 302 303 305 308 310 310 310 310 313 314 311 309 309 309 308 306 305 304 301 298 297 296 297 295 294 295 295 293 291 292 290 288 287 287 288 288 286 283 278 278 nan nan 261 248 254 263 259 257 259 258 256 255 254 253 248 248 248 234 233 258 258
285 291 297 302 306 307 306 307 308 306 303 302 302 302 300 298 297 298 299 300 300 301 300 301 302 303 305 307 308 308 308 311 313 311 309 309 309 307 306 307 306 303 301 296 294 292 294 297 297 298 297 296 295 295 292 288 286 287 288 288 286 283 279 277 275 268 257 246 235 231 244 259 261 261 261 257 255 253 251 249 250 252 244 251 253
292 292 295 302 304 303 304 306 307 305 301 299 298 297 296 296 297 298 298 299 301 301 301 299 300 303 304 304 305 306 309 311 310 309 308 308 307 307 307 304 299 299 298 295 296 298 298 296 296 297 297 296 296 293 291 290 288 290 291 291 286 280 276 272 269 260 252 247 236 227 221 nan 252 263 258 255 252 253 251 248 246 243 241 243 247
292 293 294 296 297 301 304 307 306 306 303 298 296 295 294 295 297 298 299 298 298 299 299 298 301 302 303 304 306 309 310 311 312 310 307 307 306 303 302 301 300 299 296 296 299 299 298 296 296 297 299 300 299 296 294 292 291 291 290 288 284 283 276 269 264 256 251 244 239 nan nan nan 237 260 264 259 254 250 249 244 241 241 240 241 244
288 289 290 291 293 298 303 305 306 306 304 301 297 295 294 295 297 299 299 298 298 298 298 300 301 303 305 307 310 312 313 314 314 309 306 306 304 301 299 298 299 299 298 298 301 299 296 296 297 298 299 299 297 295 294 292 295 298 295 280 273 274 279 273 264 255 247 239 229 nan nan nan nan 255 265 258 256 253 248 246 245 244 243 241 241
285 283 286 288 290 296 301 303 304 304 304 301 296 294 294 295 296 297 298 298 297 297 298 301 302 302 304 305 307 307 308 309 307 303 303 304 301 298 297 297 299 301 300 301 302 300 297 297 298 298 299 296 295 294 293 294 294 295 294 285 279 277 281 277 268 257 246 nan nan nan nan nan nan nan 267 258 255 256 255 251 246 246 247 248 246
278 281 284 286 288 296 300 300 303 303 302 299 294 293 294 294 295 296 296 296 296 299 303 305 305 305 304 303 305 305 305 308 304 301 300 300 299 295 293 295 297 300 300 303 305 303 300 299 299 299 297 296 295 292 290 291 294 297 294 289 287 282 283 281 273 261 250 nan nan nan nan nan nan nan 269 nan nan nan 251 254 248 249 251 252 250
278 281 283 284 288 297 297 298 301 302 299 296 293 293 292 293 294 294 295 295 298 301 304 305 305 305 301 301 301 303 305 302 297 297 298 298 296 292 289 290 294 297 297 303 306 306 302 301 301 298 298 296 293 292 290 290 288 286 286 289 290 290 287 282 272 261 252 nan nan nan nan nan nan nan nan nan 267 255 nan nan nan 256 nan 254 252
276 277 279 280 285 294 294 297 300 300 296 294 291 292 292 293 294 294 295 296 300 302 302 301 301 300 299 298 300 300 299 298 296 296 296 296 293 286 284 285 288 292 296 301 303 303 302 301 300 299 297 295 290 287 286 285 285 288 291 295 297 296 289 281 273 262 257 nan nan nan 253 254 nan nan nan nan nan nan nan nan 265 258 nan 257 257
276 275 277 280 287 292 294 296 298 297 294 293 290 290 292 292 292 292 294 298 301 300 299 299 297 297 297 296 297 297 297 296 295 294 291 286 285 285 285 285 289 292 293 298 298 297 300 299 298 296 294 292 291 288 286 284 288 289 290 292 294 292 286 280 269 262 260 nan nan 248 262 259 nan nan nan nan nan nan nan nan nan nan nan nan nan
276 277 279 283 291 293 294 295 295 293 292 292 290 290 289 291 291 292 295 299 300 298 296 295 294 294 294 294 293 296 298 298 295 293 290 287 286 286 286 286 290 292 292 294 295 294 295 296 296 296 293 289 287 285 282 284 287 290 290 291 291 288 284 278 269 270 266 nan 259 nan nan nan nan 270 267 274 nan nan 260 255 255 253 254 259 259
277 280 283 286 288 295 294 292 290 290 291 291 289 289 289 291 292 294 297 297 296 296 295 293 292 292 294 295 297 300 301 297 294 292 290 290 288 288 289 291 292 293 292 294 295 295 294 294 293 290 288 285 282 280 279 284 288 294 291 289 288 289 288 281 270 271 265 nan nan nan nan 249 262 277 283 271 268 265 256 nan nan nan nan nan nan
280 281 283 284 288 295 292 288 287 287 288 288 287 288 290 292 294 296 296 294 294 294 292 291 291 293 295 296 295 295 293 291 291 291 290 290 291 291 292 294 294 294 296 297 297 295 291 291 289 285 280 279 276 275 276 282 287 292 290 289 290 291 288 281 275 269 263 259 261 nan nan nan 265 281 274 nan nan 267 266 259 254 nan nan nan 246
279 280 280 282 288 289 291 286 285 284 283 283 284 288 290 291 293 295 294 295 293 292 291 290 289 291 292 291 291 291 292 294 293 292 290 290 290 292 294 294 292 290 290 293 293 292 288 289 290 285 276 271 268 269 272 276 283 290 290 290 291 290 287 278 275 271 264 255 253 nan nan 266 263 266 279 274 271 nan nan nan nan nan 251 246 nan
274 277 278 281 283 282 281 287 286 282 282 284 286 288 289 290 292 295 295 293 292 290 288 288 289 289 290 291 293 296 296 295 292 288 287 290 294 296 295 294 290 286 286 287 287 284 283 285 290 284 274 267 260 260 267 273 280 289 291 291 291 290 288 281 276 269 261 256 253 260 265 262 276 282 271 270 268 264 263 nan nan nan nan nan nan
273 275 279 279 278 277 278 279 284 287 285 286 287 288 290 293 294 294 293 293 292 289 287 287 287 289 291 292 292 292 292 292 290 288 286 287 286 288 293 292 290 287 283 283 284 283 280 282 286 284 280 270 255 252 260 268 278 290 294 294 293 291 289 280 270 265 263 261 255 255 258 261 272 268 273 272 265 265 264 261 nan nan nan nan nan
275 276 279 276 272 272 274 277 281 280 283 285 288 290 292 294 295 294 293 292 291 289 287 287 288 290 293 292 293 291 290 288 289 287 282 280 278 280 284 286 286 281 277 279 283 282 276 278 283 285 286 271 252 250 255 264 275 289 297 295 293 291 290 279 267 264 263 262 258 253 257 257 258 266 266 265 268 268 263 262 261 nan nan nan nan
279 275 272 269 268 270 271 272 274 276 278 277 280 288 295 297 295 294 292 292 290 290 291 291 292 293 294 293 294 292 291 289 289 289 283 281 279 277 278 278 284 281 279 279 278 273 269 274 278 283 286 270 253 250 252 259 271 290 298 295 293 290 288 273 267 263 259 256 253 255 259 268 270 267 268 267 263 262 260 255 257 259 nan nan nan
278 270 265 259 264 265 268 269 271 273 273 275 281 288 297 298 296 295 296 295 293 292 292 294 294 295 295 294 293 290 288 289 292 288 282 280 278 272 269 271 277 278 278 277 274 268 264 268 267 274 279 264 252 247 247 257 265 286 298 293 292 289 275 268 266 261 259 255 252 253 261 264 264 271 272 266 264 261 261 263 263 261 260 nan nan
268 260 254 256 261 264 271 268 270 273 273 277 283 289 295 296 297 300 299 297 294 295 296 297 296 294 291 286 282 280 282 283 282 282 278 276 278 277 275 273 271 272 274 273 274 270 260 260 258 265 270 255 244 241 240 249 261 274 293 291 287 273 275 268 263 261 259 254 253 256 270 267 264 262 259 261 267 266 266 263 258 260 260 nan nan
268 252 252 256 260 262 268 267 269 274 275 279 282 286 291 293 292 293 291 292 294 295 291 288 287 280 284 283 284 283 283 281 280 280 276 278 276 276 276 276 276 274 273 275 276 271 261 257 255 259 264 255 247 238 231 236 258 268 284 278 264 268 269 268 264 261 260 257 255 258 270 267 265 263 264 263 263 263 260 259 258 260 264 265 nan
256 247 248 252 252 257 265 267 269 274 277 278 280 282 285 286 288 289 290 292 292 287 283 281 275 278 281 285 284 283 281 279 279 280 279 281 277 275 275 277 278 275 274 273 275 275 264 258 257 257 259 259 254 248 244 235 239 269 267 260 261 261 262 261 261 259 259 258 253 264 265 265 265 265 263 264 264 264 266 264 265 267 265 262 261
253 244 244 243 252 254 262 268 271 275 278 279 282 284 286 287 288 287 287 286 285 284 282 282 281 281 284 284 283 280 278 282 288 286 280 274 279 280 278 280 280 279 277 272 272 270 260 257 261 256 255 261 261 255 252 244 245 246 252 256 256 258 259 257 258 258 259 256 252 269 265 264 263 261 259 263 263 261 261 260 261 263 263 263 nan
241 236 234 237 249 253 259 265 269 275 278 281 284 286 287 288 288 288 287 287 287 286 287 285 285 285 283 282 281 280 277 278 275 276 276 274 272 270 270 271 272 271 272 268 260 254 254 262 nan nan 259 263 nan 265 263 259 254 255 255 255 257 257 256 255 254 257 260 256 255 268 266 262 259 258 260 261 260 261 261 262 263 261 261 264 265
237 232 231 235 242 247 254 259 266 272 278 282 284 288 290 291 290 290 289 288 290 290 289 288 287 286 285 283 280 279 279 278 276 275 274 273 272 271 270 273 273 272 268 265 259 252 255 261 263 nan nan 266 271 nan 271 270 266 265 263 258 257 257 256 256 255 255 259 259 260 266 258 259 262 261 259 261 262 263 264 263 262 260 259 260 nan
250 245 236 234 240 245 251 257 265 270 276 280 284 289 292 292 290 291 292 291 291 291 289 286 287 288 285 283 282 280 279 279 277 272 271 270 269 266 266 270 277 274 265 267 262 256 258 261 262 nan 265 271 273 nan 274 268 269 274 272 263 255 254 257 257 256 254 256 258 258 266 261 258 258 257 259 259 259 262 263 263 264 265 265 264 263
271 277 258 247 245 245 252 257 264 272 278 282 285 291 293 295 295 295 294 296 293 292 289 287 287 286 283 283 280 280 282 280 276 273 271 265 262 260 267 273 274 267 260 260 265 260 263 263 nan nan 264 265 267 nan 271 271 271 274 274 267 255 251 253 255 254 253 253 254 257 262 260 255 258 258 257 260 261 263 265 267 268 267 267 264 264
289 296 276 259 249 248 258 267 274 278 280 287 290 294 297 297 298 296 298 304 295 289 286 284 282 282 280 281 282 279 276 276 274 271 267 263 258 261 269 271 263 254 255 256 nan nan nan nan nan 267 265 267 270 nan nan 275 275 273 272 267 259 254 253 253 254 253 251 252 254 256 256 259 260 259 262 264 264 264 264 266 267 268 267 266 266
292 293 282 268 252 256 280 291 289 290 288 291 292 297 301 303 301 302 305 299 292 283 283 279 278 279 277 274 271 272 273 272 270 266 268 266 262 263 262 260 257 252 256 262 265 nan nan nan nan nan 267 270 275 280 nan 280 279 273 270 267 265 260 257 255 253 252 249 250 251 250 253 257 262 261 262 266 268 266 266 269 269 269 269 270 269
290 294 275 258 254 267 289 292 299 299 297 298 295 295 300 303 304 303 298 292 286 279 274 272 271 270 270 269 267 266 266 263 263 264 265 265 263 261 259 257 254 257 264 271 267 271 275 nan nan nan nan 277 nan nan nan nan 280 272 269 270 272 267 260 252 249 249 248 250 249 247 252 261 266 265 262 261 268 271 269 272 273 271 270 269 267
303 311 273 250 265 285 289 298 301 305 312 303 296 297 301 304 303 299 292 288 283 274 270 269 272 269 267 267 265 261 258 255 260 259 264 264 264 264 260 259 260 261 nan 267 266 268 nan nan 268 nan nan nan nan nan nan nan 274 266 267 272 275 268 259 252 247 245 248 250 249 247 249 257 263 262 262 261 259 268 277 274 274 272 269 268 268
278 279 271 276 292 298 296 302 305 315 318 312 303 301 302 303 300 292 285 284 278 271 270 269 268 265 264 263 261 257 249 253 252 257 262 263 263 264 262 262 262 260 262 265 267 258 259 261 nan nan nan nan nan nan 274 271 274 270 270 272 271 268 259 245 239 243 251 252 248 247 246 248 251 259 261 258 259 255 273 272 272 270 270 271 269
276 270 283 300 299 300 301 300 307 316 320 314 309 305 303 294 289 284 282 279 273 270 268 264 265 264 264 264 261 255 252 249 255 253 257 259 260 262 266 263 258 260 260 259 257 253 254 nan nan nan nan nan nan nan 278 278 275 271 267 267 269 265 255 256 260 259 247 244 249 248 248 248 248 244 253 269 259 255 268 276 273 275 276 273 269
274 283 302 301 297 297 298 298 311 314 319 315 318 314 300 290 283 278 276 272 267 263 262 261 264 262 262 261 259 255 255 254 254 257 258 260 258 258 259 257 254 255 252 244 249 244 249 nan nan nan nan nan nan nan nan 282 284 277 269 265 267 261 253 258 257 248 245 246 248 248 247 251 245 239 243 248 255 257 258 267 266 264 261 260 266
286 284 284 286 290 290 302 305 311 312 315 317 312 305 298 287 280 277 272 269 265 262 260 259 257 255 257 255 254 252 252 253 255 258 261 260 262 261 256 253 259 255 247 246 245 244 nan nan nan nan nan nan nan nan nan 282 281 278 273 266 259 256 257 262 258 254 248 246 246 248 252 253 249 246 248 250 255 256 260 263 262 258 258 259 260
263 274 282 287 288 289 301 305 309 309 310 309 305 296 289 284 280 276 271 267 268 263 255 249 244 246 250 253 254 251 249 250 253 258 265 265 264 264 259 257 257 262 262 251 250 249 nan nan nan nan nan nan nan nan 278 278 275 275 273 266 257 258 266 261 252 249 244 245 237 247 258 259 257 255 249 256 257 257 257 260 259 260 262 264 262
268 283 288 296 297 296 301 302 303 305 302 304 306 293 279 276 274 270 266 265 265 257 250 247 246 246 250 254 253 250 250 250 254 260 264 265 261 256 256 257 252 257 261 260 254 254 nan nan nan nan nan nan nan nan 286 282 273 273 271 265 259 256 253 246 251 250 247 246 241 244 252 254 254 254 256 258 258 258 259 257 258 258 257 258 257
279 291 292 292 292 295 296 304 303 302 299 297 294 276 268 269 268 265 257 256 253 247 243 242 244 248 248 252 251 249 250 252 259 265 265 262 254 255 257 269 260 254 257 255 259 264 nan nan nan nan nan nan nan nan 284 279 272 271 268 263 260 259 257 246 245 248 245 248 257 248 238 238 247 254 255 256 257 256 256 258 259 258 256 252 253
280 288 287 285 285 288 294 297 297 297 294 291 278 258 264 277 275 262 247 244 247 243 235 239 243 246 245 246 247 250 256 261 262 262 264 263 263 265 265 252 253 251 259 264 272 273 280 nan nan nan nan nan nan 258 271 276 268 265 263 256 255 257 250 249 243 235 237 240 238 235 242 240 245 251 254 255 255 256 258 259 258 258 257 253 250
275 281 282 281 288 293 295 296 291 291 289 290 274 253 265 275 270 266 248 240 244 240 238 238 240 239 238 238 244 250 258 262 265 264 265 270 265 261 260 255 258 270 273 282 271 273 278 nan nan nan nan nan nan nan nan nan 275 262 256 256 252 247 253 254 240 227 230 231 230 231 239 242 245 251 254 258 262 262 260 260 260 260 259 258 nan
277 286 296 301 300 296 296 288 285 285 285 285 268 249 253 263 266 266 247 239 241 241 239 238 236 233 234 235 237 247 255 262 267 268 269 267 263 263 268 270 264 260 257 255 259 266 273 274 nan nan nan nan nan nan nan nan nan 277 283 270 259 253 249 247 244 228 231 237 237 235 237 247 251 249 252 261 267 264 258 258 259 258 258 nan nan
291 303 298 293 292 292 293 292 283 277 276 278 268 260 255 256 261 256 249 235 227 230 236 233 231 231 227 229 233 238 246 250 260 269 268 269 269 267 266 264 263 264 260 263 270 274 275 281 nan nan nan nan 257 260 nan nan nan nan 257 268 267 270 259 243 239 232 231 234 234 235 242 247 245 255 265 273 274 264 259 255 254 256 nan nan nan
310 287 290 290 283 287 297 302 290 270 266 272 267 263 265 257 249 247 237 234 233 230 228 229 227 227 226 224 224 232 237 247 254 260 261 267 271 271 267 269 271 271 270 272 276 277 276 278 277 nan nan nan 270 279 232 nan nan nan nan 253 272 263 274 259 250 231 240 247 248 240 241 245 251 249 253 264 265 259 258 259 nan nan nan nan nan
323 310 295 287 281 295 301 302 297 278 264 265 267 264 259 247 241 235 234 229 222 225 229 221 225 227 227 224 224 230 235 244 250 253 256 262 260 262 267 269 272 271 270 267 275 282 284 287 290 289 297 291 284 266 260 233 nan nan nan nan nan 266 266 277 264 234 236 243 246 251 245 247 250 257 260 256 253 255 262 nan nan nan nan nan nan
339 326 300 291 290 297 302 292 289 289 280 267 260 258 257 250 236 231 230 223 220 225 228 233 231 231 228 220 222 228 234 240 245 248 249 253 257 260 263 267 267 265 266 265 264 272 283 291 303 303 302 286 289 281 279 240 255 nan nan nan nan nan nan 287 271 262 nan 247 nan 257 249 246 253 260 nan 261 nan nan nan nan nan nan nan nan nan
272 277 287 300 304 301 305 304 292 289 287 267 253 251 249 242 236 230 229 229 228 210 213 221 231 226 227 225 222 223 229 237 236 238 243 nan nan 253 258 263 266 268 265 261 261 278 285 296 289 296 307 286 275 293 300 284 259 248 nan 242 253 nan nan 293 nan nan 269 256 253 256 250 247 nan 259 260 262 nan nan nan nan nan nan nan nan nan
278 288 289 300 320 314 307 310 299 289 283 264 249 246 248 244 239 229 228 232 235 228 221 224 224 228 227 225 224 222 225 227 231 231 235 nan nan 248 252 258 265 267 268 269 267 264 266 268 282 285 278 286 294 298 300 280 312 290 247 nan nan nan nan nan nan nan nan 280 271 nan 261 265 262 259 nan nan nan nan nan nan nan nan nan nan nan
274 296 307 306 315 314 299 292 288 278 268 256 245 238 246 252 244 235 233 232 237 230 221 223 227 226 229 226 227 227 225 225 229 235 236 nan 241 245 251 255 259 261 258 256 254 267 283 280 275 269 281 284 287 272 274 290 287 281 271 250 260 nan nan nan nan nan 283 282 nan nan nan nan 271 nan nan nan nan nan nan nan nan nan nan nan nan
271 291 305 308 304 298 290 286 281 271 266 261 244 242 247 248 244 239 241 237 234 224 222 224 224 225 230 230 233 232 231 229 227 229 233 237 241 243 248 252 253 253 249 250 247 255 262 274 283 287 283 286 272 274 283 272 273 266 271 279 nan nan nan nan nan nan nan nan nan nan nan nan nan nan nan nan nan nan nan nan nan nan nan nan nan
263 282 294 299 294 289 284 277 256 251 274 272 249 242 239 240 240 240 242 242 234 230 225 222 224 225 233 233 234 231 226 nan nan nan nan 235 239 242 248 246 241 241 241 243 242 247 255 271 279 281 284 289 283 280 264 264 269 271 271 278 281 nan nan nan nan nan nan nan nan nan nan nan nan nan nan nan nan nan nan nan nan nan nan nan nan